This demonstration page uses our WeatherBlox Daily Observations layout. Learn more.

39.08367, -84.50855

Hourly Observations for January 20, 2019

Temp ( °F °C ) Dew Point ( °F °C ) Humidity (%) Winds ( mph kmh ) Pressure ( in mb ) Visibility ( mi km ) Precip ( " mm )
12:30 am 00:30 Mostly Cloudy with Freezing Fog 22 -5.6 19 -7.2 89 89 N 16 26 29.77 1008 0.25 0.402336 0.03 0.762
12:45 am 00:45 Mostly Cloudy with Freezing Fog 22 -5.6 19 -7.2 89 89 undefined N/A 29.77 1008 0.25 0.402336 0.04 1.016
12:53 am 00:53 Mostly Cloudy with Freezing Fog 22 -5.6 18 -7.8 85 85 N 15 24 29.74 1007 0.5 0.804672 0.04 1.016
1:15 am 01:15 Cloudy with Light Snow 22 -5.6 17 -8.3 82 82 N 16 26 29.8 1009 1.25 2.01168 0.01 0.254
1:41 am 01:41 Mostly Cloudy with Scattered Snow Showers 21 -6.1 17 -8.3 85 85 N 18 30 29.85 1011 0.75 1.207008 0.01 0.254
1:53 am 01:53 Mostly Cloudy with Scattered Snow Showers 21 -6.1 17 -8.3 85 85 N 16 26 29.8 1009 1 1.609344 0.01 0.254
2:13 am 02:13 Cloudy with Mist and Fog 20 -6.7 16 -8.9 85 85 N 13 20 29.88 1012 0.75 1.207008 0.001 0.001
2:34 am 02:34 Cloudy with Haze 20 -6.7 15 -9.4 81 81 NNW 16 26 29.88 1012 1.75 2.816352 0.001 0.001
2:40 am 02:40 Cloudy with Haze 20 -6.7 15 -9.4 81 81 NNW 14 22 29.88 1012 3 4.828032 0.001 0.001
2:53 am 02:53 Cloudy with Haze 20 -6.7 14 -10 78 78 NNW 20 31 29.85 1011 5 8.04672 0.001 0.001
3:53 am 03:53 Cloudy 19 -7.2 12 -11.1 74 74 NNW 18 30 29.88 1012 9 14.484096 0 0
4:53 am 04:53 Cloudy 19 -7.2 11 -11.7 71 71 NNW 17 28 29.94 1014 7 11.265408 0 0
5:53 am 05:53 Windy with Snow Likely 17 -8.3 9 -12.8 70 70 NNW 20 31 30 1016 6 9.656064 0.001 0.001
6:53 am 06:53 Cloudy with Light Snow 16 -8.9 9 -12.8 74 74 NNW 12 19 30.06 1018 5 8.04672 0.001 0.001
7:53 am 07:53 Cloudy 14 -10 6 -14.4 71 71 N 13 20 30.12 1020 10 16.09344 0.001 0.001
8:53 am 08:53 Mostly Cloudy 12 -11.1 3 -16.1 67 67 NNW 15 24 30.18 1022 10 16.09344 0.001 0.001
9:53 am 09:53 Mostly Cloudy 12 -11.1 3 -16.1 67 67 NNW 17 28 30.21 1023 9 14.484096 0 0
10:20 am 10:20 Partly Cloudy 13 -10.6 3 -16.1 64 64 N 14 22 30.24 1024 10 16.09344 0 0
10:53 am 10:53 Partly Cloudy 13 -10.6 3 -16.1 64 64 N 16 26 30.21 1023 10 16.09344 0 0
11:53 am 11:53 Mostly Sunny 15 -9.4 4 -15.6 61 61 NNW 13 20 30.24 1024 10 16.09344 0 0
12:53 pm 12:53 Sunny 16 -8.9 2 -16.7 54 54 N 15 24 30.24 1024 10 16.09344 0.001 0.001
1:53 pm 13:53 Sunny 17 -8.3 0 -17.8 47 47 N 13 20 30.24 1024 10 16.09344 0 0
2:53 pm 14:53 Sunny 17 -8.3 -1 -18.3 45 45 N 18 30 30.24 1024 10 16.09344 0 0
3:53 pm 15:53 Sunny 16 -8.9 -2 -18.9 45 45 N 14 22 30.3 1026 10 16.09344 0 0
4:53 pm 16:53 Sunny 15 -9.4 -3 -19.4 44 44 N 15 24 30.33 1027 10 16.09344 0 0
5:53 pm 17:53 Clear 13 -10.6 -3 -19.4 49 49 N 5 7 30.36 1028 10 16.09344 0 0
6:53 pm 18:53 Clear 12 -11.1 -2 -18.9 53 53 NW 5 7 30.36 1028 10 16.09344 0 0
7:53 pm 19:53 Clear 12 -11.1 -1 -18.3 56 56 NW 6 9 30.39 1029 10 16.09344 0 0
8:53 pm 20:53 Clear 12 -11.1 0 -17.8 58 58 WNW 3 6 30.39 1029 10 16.09344 0 0
9:53 pm 21:53 Cloudy 13 -10.6 0 -17.8 56 56 NW 6 9 30.42 1030 10 16.09344 0 0
10:53 pm 22:53 Cloudy 13 -10.6 1 -17.2 59 59 WNW 6 9 30.45 1031 10 16.09344 0 0
11:53 pm 23:53 Clear 11 -11.7 1 -17.2 64 64 WNW 3 6 30.45 1031 10 16.09344 0 0

Powered by AerisWeather